STARLINK-2734 (48657 NORAD) Tracking and Keplerian Element Data

This shows tracking and keplerian element data for the satellite.

Feedback or suggestion? Click here.




ElementValue
Catalog48657
NameSTARLINK-2734
Epoch Orbit2244
Epoch Day288.00816818
Epoch Year2021
RAAN134.2809
Inclination53.0568
Eccentricity0.0001931
Argument of Perigee54.6895
Mean Anonmoly305.4274
Mean Motion15.06380364
Decay Rate-1.598E-05
L11 48657U 21044V 21288.00816818 -.00001598 00000-0 -88424-4 0 9999
L22 48657 53.0568 134.2809 0001931 54.6895 305.4274 15.06380364 22440

Live tracking and technical data element details for STARLINK-2734 (NORAD 48657). STARLINK-2734 can be tracked NOW for your location showing map with azimuth and elevation plus other details from your city location.

Track the satellite on the map from your city or location and see movement details for azimuth, elevation, latitude, longitude, range, height, and movement on the map or in text.







IsCatalogInMostPopularTable: catalog: 48657, numindb: 38
Update: records affected: 1



GetName: 48657 STARLINK-2734

Hit Count: updated at: Tue, 19 Oct 2021 08:00:45 GMT